GAOFEN 1                
1 39150U 13018A   19261.76441709  .00000003  00000-0  77607-5 0  9993
2 39150  97.8947 340.1111 0017857 280.6280  79.2912 14.76540132344777
NEE-01 PEGASO           
1 39151U 13018B   19261.48777006  .00000126  00000-0  23618-4 0  9993
2 39151  97.9734 357.2553 0015655 263.9151  96.0277 14.80071318345308
TURKSAT-3USAT           
1 39152U 13018C   19261.79324258  .00000146  00000-0  25837-4 0  9992
2 39152  97.9135 349.2987 0015524 248.2616 111.6944 14.80716429345431
CUBEBUG-1 (CAPITAN BETO)
1 39153U 13018D   19261.20187062  .00000153  00000-0  26957-4 0  9991
2 39153  97.9806 358.8244 0015590 261.1071  98.8376 14.80594459345354
CZ-2D R/B               
1 39154U 13018E   19261.55722277 -.00000048  00000-0  13762-5 0  9998
2 39154  98.4878  97.5301 0019175 351.2118   8.8751 14.75659761344435